EA3CH Weather Reports


time (UTC)temp
C
wind
direction
speed
KPH
gust
KPH
rain 1hr
cm
rain 24hr
cm
rain mn
cm
humidity
%
barometer
mb
20260507191505 12 265 1.6 6.4 0.00 0.00 0.00 87 1013.2
20260507184505 12 250 1.6 3.2 0.00 0.00 0.00 85 1013.0
20260507181505 13 251 3.2 8.0 0.00 0.00 0.00 81 1012.6
20260507180005 13 247 1.6 6.4 0.00 0.00 0.00 79 1012.3
20260507174505 14 258 3.2 11.3 0.00 0.00 0.00 77 1012.2
20260507171505 15 239 1.6 6.4 0.00 0.00 0.00 74 1012.0
20260507170005 15 246 3.2 8.0 0.00 0.00 0.00 74 1011.9
20260507164506 15 253 4.8 11.3 0.00 0.00 0.00 73 1012.0
20260507163006 15 256 6.4 16.1 0.00 0.00 0.00 71 1011.9
20260507161506 16 254 3.2 16.1 0.00 0.00 0.00 69 1011.8
20260507160007 16 242 3.2 11.3 0.00 0.00 0.00 69 1011.9
20260507153006 16 246 3.2 8.0 0.00 0.00 0.00 68 1011.8
20260507151506 16 254 4.8 14.5 0.00 0.00 0.00 69 1011.9
20260507150006 16 252 4.8 12.9 0.00 0.00 0.00 70 1012.0
20260507144507 16 248 3.2 11.3 0.00 0.00 0.00 69 1011.9
20260507140006 17 240 4.8 11.3 0.00 0.00 0.00 69 1012.4
20260507130006 17 242 3.2 9.7 0.00 0.00 0.00 66 1012.8
20260507121506 17 79 1.6 8.0 0.00 0.00 0.00 55 1013.0
20260507120006 17 264 1.6 6.4 0.00 0.00 0.00 57 1013.0
20260507114506 17 74 1.6 6.4 0.00 0.00 0.00 62 1013.1
20260507113006 16 68 1.6 9.7 0.00 0.00 0.00 58 1013.3
20260507111507 16 76 1.6 6.4 0.00 0.00 0.00 60 1013.4
20260507100006 13 90 3.2 6.4 0.00 0.00 0.00 89 1013.9
20260507094505 13 74 1.6 8.0 0.00 0.00 0.00 89 1014.0
20260507090006 12 76 0.0 3.2 0.00 0.00 0.00 88 1013.8
20260507083005 12 267 0.0 4.8 0.00 0.00 0.00 87 1013.8
20260507081506 12 254 1.6 8.0 0.00 0.00 0.00 87 1013.9
20260507080005 11 262 1.6 6.4 0.00 0.00 0.00 87 1014.0
20260507074506 11 259 3.2 8.0 0.00 0.00 0.00 87 1014.0
20260507073006 11 256 1.6 8.0 0.00 0.00 0.00 87 1014.1
20260507071506 11 265 0.0 3.2 0.00 0.00 0.00 87 1014.0
20260507070010 12 0 0.0 0.0 0.00 0.00 0.00 87 1013.8
20260507064506 11 0 0.0 0.0 0.00 0.00 0.00 87 1013.6
20260507063005 10 0 0.0 0.0 0.00 0.00 0.00 87 1013.5
20260507060006 7 0 0.0 0.0 0.00 0.00 0.00 88 1013.5
20260507051506 7 0 0.0 0.0 0.00 0.00 0.00 88 1013.1
20260507050006 7 0 0.0 0.0 0.00 0.00 0.00 88 1013.1
20260507043005 6 0 0.0 0.0 0.00 0.00 0.00 89 1013.1
20260507040005 6 0 0.0 0.0 0.00 0.00 0.00 89 1013.0
20260507034506 6 0 0.0 0.0 0.00 0.00 0.00 89 1013.0
20260507030005 7 0 0.0 0.0 0.00 0.00 0.00 89 1013.1
20260507024505 7 0 0.0 0.0 0.00 0.00 0.00 90 1013.1
20260507021504 7 0 0.0 0.0 0.00 0.00 0.00 90 1013.1
20260507020005 7 0 0.0 0.0 0.00 0.00 0.00 90 1013.3
20260507014505 8 0 0.0 0.0 0.00 0.00 0.00 90 1013.4
20260506224505 10 267 0.0 3.2 0.00 0.03 0.00 89 1013.9
20260506214507 11 251 1.6 9.7 0.00 0.05 0.03 89 1013.7
20260506211505 11 272 0.0 4.8 0.00 0.08 0.03 89 1013.6
20260506210005 11 262 1.6 6.4 0.00 0.30 0.03 89 1013.5
20260506204505 11 241 1.6 4.8 0.00 0.30 0.03 89 1013.4
20260506201505 11 249 1.6 6.4 0.00 0.30 0.03 88 1013.0
20260506194505 11 240 1.6 6.4 0.00 0.30 0.03 86 1012.5
20260506193005 11 258 1.6 6.4 0.00 0.30 0.03 83 1012.3